Location: Ottobeuren
(47.9410°N, 10.3007°E)
Time: 00:12:13
(UTC+02:00)

Envisat - Visible Passes

Search period start: 20 April 2019 00:00
Search period end: 30 April 2019 00:00
Orbit: 764 x 766 km, 98.2° (Epoch: 19 April)

Date Brightness Start Highest point End Pass type
(mag) Time Alt. Az. Time Alt. Az. Time Alt. Az.
20 Apr 5.7 21:05:25 10° SW 21:08:56 19° W 21:12:29 10° NW visible
22 Apr 6.2 21:33:34 10° W 21:34:50 11° W 21:36:06 10° WNW visible
23 Apr 5.6 20:53:36 10° SW 20:57:36 23° W 21:01:37 10° NW visible
25 Apr 5.9 21:20:53 10° WSW 21:23:27 14° W 21:26:00 10° WNW visible
28 Apr 5.8 21:08:46 10° SW 21:12:04 17° W 21:15:23 10° NW visible
